DL7MAP-13 Weather Reports


Display with metric or nautical units.
time (UTC)temp
F
wind
direction
speed
MPH
gust
MPH
rain 1hr
in
rain 24hr
in
rain mn
in
humidity
%
barometer
mb
20260902122224 73 0.0 0.0 0.00 0.00 0.00 51 1014.0
20260902120724 73 0.0 0.0 0.00 0.00 0.00 51 1012.9
20260902115224 74 0.0 0.0 0.00 0.00 0.00 51 1015.1
20260902113724 73 0.0 0.0 0.00 0.00 0.00 52 1014.9
20260902112224 71 0.0 0.0 0.00 0.00 0.00 52 1014.3
20260902110725 70 0.0 0.0 0.00 0.00 0.00 54 1015.0
20260902105224 70 0.0 0.0 0.00 0.00 0.00 56 1014.3
20260902103724 71 0.0 0.0 0.00 0.00 0.00 56 1014.2
20260902102224 70 0.0 0.0 0.00 0.00 0.00 59 1015.5
20260902100724 68 0.0 0.0 0.00 0.00 0.00 60 1015.2
20260902095224 70 0.0 0.0 0.00 0.00 0.00 59 1015.0
20260902093724 70 0.0 0.0 0.00 0.00 0.00 60 1015.3
20260902092225 69 0.0 0.0 0.00 0.00 0.00 62 1015.7
20260902090724 68 0.0 0.0 0.00 0.00 0.00 62 1015.5
20260902085224 68 0.0 0.0 0.00 0.00 0.00 63 1015.0
20260902083724 67 0.0 0.0 0.00 0.00 0.00 65 1015.9
20260902082224 68 0.0 0.0 0.00 0.00 0.00 65 1015.2
20260902080724 67 0.0 0.0 0.00 0.00 0.00 68 1015.2
20260902075224 67 0.0 0.0 0.00 0.00 0.00 69 1014.2
20260902073724 66 0.0 0.0 0.00 0.00 0.00 72 1015.3
20260902072224 65 0.0 0.0 0.00 0.00 0.00 75 1015.4
20260902070724 63 0.0 0.0 0.00 0.00 0.00 78 1014.9
20260902065224 63 0.0 0.0 0.00 0.00 0.00 79 1015.1
20260902063724 62 0.0 0.0 0.00 0.00 0.00 81 1014.3
20260902062224 61 0.0 0.0 0.00 0.00 0.00 82 1014.6
20260902060724 61 0.0 0.0 0.00 0.00 0.00 83 1014.5
20260902055225 61 0.0 0.0 0.00 0.00 0.00 84 1015.0
20260902053725 60 0.0 0.0 0.00 0.00 0.00 85 1015.2
20260902052224 59 0.0 0.0 0.00 0.00 0.00 87 1014.7
20260902050724 58 0.0 0.0 0.00 0.00 0.00 88 1015.2
20260902045224 57 0.0 0.0 0.00 0.00 0.00 89 1015.1
20260902043724 57 0.0 0.0 0.00 0.00 0.00 89 1014.6
20260902042224 57 0.0 0.0 0.00 0.00 0.00 89 1014.8
20260902040724 56 0.0 0.0 0.00 0.00 0.00 89 1014.6
20260902035224 57 0.0 0.0 0.00 0.00 0.00 89 1014.0
20260902033724 57 0.0 0.0 0.00 0.00 0.00 88 1013.7
20260902032225 58 0.0 0.0 0.00 0.00 0.00 88 1014.2
20260902030724 58 0.0 0.0 0.00 0.00 0.00 87 1014.2
20260902025224 58 0.0 0.0 0.00 0.00 0.00 87 1014.1
20260902023724 58 0.0 0.0 0.00 0.00 0.00 86 1014.1
20260902022224 59 0.0 0.0 0.00 0.00 0.00 86 1014.2
20260902020724 59 0.0 0.0 0.00 0.00 0.00 86 1014.3
20260902015224 59 0.0 0.0 0.00 0.00 0.00 86 1014.3
20260902013724 60 0.0 0.0 0.00 0.00 0.00 86 1013.9
20260902012225 60 0.0 0.0 0.00 0.00 0.00 86 1014.0
20260902010724 60 0.0 0.0 0.00 0.00 0.00 85 1014.3
20260902005224 60 0.0 0.0 0.00 0.00 0.00 85 1014.0
20260902003724 61 0.0 0.0 0.00 0.00 0.00 84 1014.0
20260902002224 61 0.0 0.0 0.00 0.00 0.00 83 1014.1
20260902000724 62 0.0 0.0 0.00 0.00 0.00 83 1013.6
20260901235224 62 0.0 0.0 0.00 0.00 0.00 82 1013.9
20260901233724 62 0.0 0.0 0.00 0.00 0.00 82 1013.8
20260901232224 62 0.0 0.0 0.00 0.00 0.00 81 1013.7
20260901230724 63 0.0 0.0 0.00 0.00 0.00 81 1013.9
20260901225224 63 0.0 0.0 0.00 0.00 0.00 81 1013.8
20260901223724 63 0.0 0.0 0.00 0.00 0.00 80 1013.6
20260901222224 64 0.0 0.0 0.00 0.00 0.00 79 1013.6
20260901220724 64 0.0 0.0 0.00 0.00 0.00 79 1014.0
20260901215224 64 0.0 0.0 0.00 0.00 0.00 77 1013.0
20260901213725 64 0.0 0.0 0.00 0.00 0.00 77 1013.3
20260901212224 65 0.0 0.0 0.00 0.00 0.00 75 1013.3
20260901210724 65 0.0 0.0 0.00 0.00 0.00 74 1013.5
20260901205224 65 0.0 0.0 0.00 0.00 0.00 73 1013.5
20260901203724 66 0.0 0.0 0.00 0.00 0.00 71 1013.2
20260901202224 67 0.0 0.0 0.00 0.00 0.00 69 1013.1
20260901200724 67 0.0 0.0 0.00 0.00 0.00 66 1013.2
20260901195224 68 0.0 0.0 0.00 0.00 0.00 65 1013.0
20260901193725 68 0.0 0.0 0.00 0.00 0.00 64 1013.2
20260901192224 69 0.0 0.0 0.00 0.00 0.00 63 1012.7
20260901190724 69 0.0 0.0 0.00 0.00 0.00 62 1012.7
20260901185224 69 0.0 0.0 0.00 0.00 0.00 61
20260901183724 70 0.0 0.0 0.00 0.00 0.00 59
20260901182224 71 0.0 0.0 0.00 0.00 0.00 59
20260901180724 71 0.0 0.0 0.00 0.00 0.00 59
20260901175225 71 0.0 0.0 0.00 0.00 0.00 58 1011.9
20260901173724 71 0.0 0.0 0.00 0.00 0.00 57 1011.9
20260901172224 72 0.0 0.0 0.00 0.00 0.00 56 1011.4
20260901170724 72 0.0 0.0 0.00 0.00 0.00 54 1011.7
20260901165224 73 0.0 0.0 0.00 0.00 0.00 54 1011.4
20260901163724 73 0.0 0.0 0.00 0.00 0.00 53 1011.0
20260901162224 74 0.0 0.0 0.00 0.00 0.00 52 1010.9
20260901160725 74 0.0 0.0 0.00 0.00 0.00 51 1011.5
20260901155224 74 0.0 0.0 0.00 0.00 0.00 51 1012.7
20260901153724 75 0.0 0.0 0.00 0.00 0.00 51 1010.8
20260901152224 76 0.0 0.0 0.00 0.00 0.00 50 1011.5
20260901150724 76 0.0 0.0 0.00 0.00 0.00 53 1011.8
20260901145224 75 0.0 0.0 0.00 0.00 0.00 52 1010.7
20260901143724 75 0.0 0.0 0.00 0.00 0.00 51 1011.8
20260901142224 75 0.0 0.0 0.00 0.00 0.00 54 1010.3
20260901140724 74 0.0 0.0 0.00 0.00 0.00 54 1010.6
20260901135224 75 0.0 0.0 0.00 0.00 0.00 53 1012.2
20260901133724 74 0.0 0.0 0.00 0.00 0.00 55 1012.2
20260901132224 75 0.0 0.0 0.00 0.00 0.00 55 1010.9
20260901130724 74 0.0 0.0 0.00 0.00 0.00 56 1012.9
20260901125224 75 0.0 0.0 0.00 0.00 0.00 55 1012.2
20260901123724 73 0.0 0.0 0.00 0.00 0.00 58 1013.0